When you browse on this site, cookies collect data to enhance your experience and personalize the content and advertising you see.
Visit our Privacy Policy to learn more. By continuing to use the site, you agree to this use of cookies and data.
  • In Spain
  • List of Countries
  • For 7 days
  • Water Temperature
  • Weather Map
  • Weather Widgets
  • user-avatar
    Login

    Hourly Weather Holhol

    Today, 23 October, Wednesday

    Time Temperature Precipitation Wind Pressure Humidity
    00:00 +27°C° 0 mm 2 mps 713 mmHg 56%
    01:00 +26°C° 0 mm 1 mps 713 mmHg 58%
    02:00 +26°C° 0 mm 1 mps 713 mmHg 60%
    03:00 +25°C° 0 mm 1 mps 712 mmHg 62%
    04:00 +25°C° 0 mm 1 mps 713 mmHg 63%
    05:00 +25°C° 0 mm 1 mps 713 mmHg 64%
    06:00 +24°C° 0 mm 1 mps 714 mmHg 65%
    07:00 +26°C° 0 mm 2 mps 714 mmHg 57%
    08:00 +27°C° 0 mm 3 mps 714 mmHg 49%
    09:00 +29°C° 0 mm 4 mps 715 mmHg 41%
    10:00 +30°C° 0 mm 4 mps 715 mmHg 37%
    11:00 +32°C° 0 mm 5 mps 714 mmHg 33%
    12:00 +33°C° 0 mm 6 mps 714 mmHg 29%
    13:00 +34°C° 0 mm 6 mps 713 mmHg 28%
    14:00 +34°C° 0 mm 7 mps 713 mmHg 27%
    15:00 +34°C° 0 mm 7 mps 712 mmHg 26%
    16:00 +33°C° 0 mm 6 mps 712 mmHg 29%
    17:00 +32°C° 0 mm 6 mps 712 mmHg 32%
    18:00 +30°C° 0 mm 5 mps 713 mmHg 35%
    19:00 +29°C° 0 mm 5 mps 713 mmHg 38%
    20:00 +28°C° 0 mm 4 mps 713 mmHg 40%
    21:00 +28°C° 0 mm 3 mps 714 mmHg 43%
    22:00 +27°C° 0 mm 3 mps 714 mmHg 46%
    23:00 +27°C° 0 mm 2 mps 713 mmHg 49%

    Tomorrow, 24 October, Thursday

    Time Temperature Precipitation Wind Pressure Humidity
    00:00 +27°C° 0 mm 1 mps 713 mmHg 52%
    01:00 +26°C° 0 mm 1 mps 713 mmHg 54%
    02:00 +26°C° 0 mm 1 mps 713 mmHg 56%
    03:00 +25°C° 0 mm 1 mps 713 mmHg 59%
    04:00 +25°C° 0 mm 1 mps 713 mmHg 60%
    05:00 +25°C° 0 mm 1 mps 713 mmHg 61%
    06:00 +24°C° 0 mm 1 mps 714 mmHg 63%
    07:00 +26°C° 0 mm 2 mps 714 mmHg 55%
    08:00 +27°C° 0 mm 3 mps 715 mmHg 47%
    09:00 +29°C° 0 mm 4 mps 715 mmHg 39%
    10:00 +30°C° 0 mm 5 mps 715 mmHg 35%
    11:00 +33°C° 0 mm 5 mps 715 mmHg 31%
    12:00 +34°C° 0 mm 6 mps 714 mmHg 26%
    13:00 +34°C° 0 mm 6 mps 714 mmHg 26%
    14:00 +34°C° 0 mm 7 mps 713 mmHg 26%
    15:00 +34°C° 0 mm 7 mps 713 mmHg 25%
    16:00 +33°C° 0 mm 7 mps 713 mmHg 29%
    17:00 +32°C° 0 mm 6 mps 713 mmHg 33%
    18:00 +29°C° 0 mm 6 mps 713 mmHg 37%
    19:00 +29°C° 0 mm 5 mps 713 mmHg 41%
    20:00 +28°C° 0 mm 4 mps 714 mmHg 44%
    21:00 +28°C° 0 mm 3 mps 714 mmHg 47%
    22:00 +27°C° 0 mm 3 mps 714 mmHg 49%
    23:00 +27°C° 0 mm 2 mps 714 mmHg 52%

    Day after tomorrow, 25 October, Friday

    Time Temperature Precipitation Wind Pressure Humidity
    00:00 +26°C° 0 mm 2 mps 713 mmHg 54%
    01:00 +26°C° 0 mm 2 mps 713 mmHg 56%
    02:00 +25°C° 0 mm 1 mps 713 mmHg 59%
    03:00 +25°C° 0 mm 1 mps 713 mmHg 61%
    04:00 +25°C° 0 mm 1 mps 713 mmHg 63%
    05:00 +24°C° 0 mm 1 mps 713 mmHg 64%
    06:00 +24°C° 0 mm 1 mps 713 mmHg 66%
    07:00 +25°C° 0 mm 2 mps 714 mmHg 58%
    08:00 +27°C° 0 mm 3 mps 714 mmHg 51%
    09:00 +28°C° 0 mm 3 mps 715 mmHg 44%
    10:00 +30°C° 0 mm 4 mps 715 mmHg 38%
    11:00 +32°C° 0 mm 4 mps 714 mmHg 33%
    12:00 +34°C° 0 mm 5 mps 714 mmHg 27%
    13:00 +34°C° 0 mm 5 mps 713 mmHg 26%
    14:00 +34°C° 0 mm 6 mps 713 mmHg 25%
    15:00 +34°C° 0 mm 6 mps 712 mmHg 24%
    16:00 +33°C° 0 mm 6 mps 712 mmHg 28%
    17:00 +32°C° 0 mm 5 mps 712 mmHg 32%
    18:00 +29°C° 0 mm 5 mps 712 mmHg 36%
    19:00 +29°C° 0 mm 4 mps 713 mmHg 40%
    20:00 +28°C° 0 mm 4 mps 713 mmHg 43%
    21:00 +28°C° 0 mm 3 mps 714 mmHg 46%
    22:00 +27°C° 0 mm 3 mps 713 mmHg 50%
    23:00 +26°C° 0 mm 2 mps 713 mmHg 53%

    26 October, Saturday

    Time Temperature Precipitation Wind Pressure Humidity
    00:00 +26°C° 0 mm 2 mps 713 mmHg 57%
    01:00 +25°C° 0 mm 2 mps 712 mmHg 59%
    02:00 +25°C° 0 mm 1 mps 712 mmHg 61%
    03:00 +24°C° 0 mm 1 mps 712 mmHg 62%
    04:00 +24°C° 0 mm 1 mps 712 mmHg 64%
    05:00 +24°C° 0 mm 1 mps 712 mmHg 65%
    06:00 +23°C° 0 mm 1 mps 713 mmHg 67%
    07:00 +25°C° 0 mm 1 mps 713 mmHg 59%
    08:00 +26°C° 0 mm 2 mps 714 mmHg 51%
    09:00 +28°C° 0 mm 3 mps 715 mmHg 43%
    10:00 +29°C° 0 mm 3 mps 714 mmHg 38%
    11:00 +32°C° 0 mm 4 mps 714 mmHg 33%
    12:00 +33°C° 0 mm 5 mps 713 mmHg 28%
    13:00 +33°C° 0 mm 5 mps 713 mmHg 27%
    14:00 +33°C° 0 mm 5 mps 712 mmHg 26%
    15:00 +34°C° 0 mm 6 mps 711 mmHg 26%
    16:00 +32°C° 0 mm 5 mps 711 mmHg 31%
    17:00 +30°C° 0 mm 5 mps 711 mmHg 36%
    18:00 +29°C° 0 mm 4 mps 711 mmHg 42%
    19:00 +28°C° 0 mm 4 mps 712 mmHg 45%
    20:00 +27°C° 0 mm 3 mps 712 mmHg 49%
    21:00 +27°C° 0 mm 2 mps 713 mmHg 52%
    22:00 +27°C° 0 mm 2 mps 712 mmHg 54%
    23:00 +26°C° 0 mm 2 mps 712 mmHg 56%

    27 October, Sunday

    Time Temperature Precipitation Wind Pressure Humidity
    00:00 +26°C° 0 mm 1 mps 712 mmHg 58%
    01:00 +26°C° 0 mm 1 mps 712 mmHg 61%
    02:00 +25°C° 0 mm 1 mps 711 mmHg 63%
    03:00 +25°C° 0 mm 1 mps 711 mmHg 66%
    04:00 +24°C° 0 mm 1 mps 711 mmHg 67%
    05:00 +24°C° 0 mm 1 mps 712 mmHg 68%
    06:00 +24°C° 0 mm 1 mps 712 mmHg 70%
    07:00 +25°C° 0 mm 1 mps 713 mmHg 63%
    08:00 +27°C° 0 mm 2 mps 713 mmHg 56%
    09:00 +28°C° 0 mm 2 mps 714 mmHg 49%
    10:00 +30°C° 0 mm 3 mps 713 mmHg 42%
    11:00 +31°C° 0 mm 3 mps 713 mmHg 35%
    12:00 +34°C° 0 mm 4 mps 713 mmHg 27%
    13:00 +34°C° 0 mm 5 mps 712 mmHg 27%
    14:00 +34°C° 0 mm 6 mps 711 mmHg 26%
    15:00 +35°C° 0 mm 6 mps 711 mmHg 26%
    16:00 +33°C° 0 mm 6 mps 711 mmHg 31%
    17:00 +32°C° 0 mm 5 mps 711 mmHg 36%
    18:00 +29°C° 0 mm 5 mps 711 mmHg 40%
    19:00 +28°C° 0 mm 4 mps 711 mmHg 44%
    20:00 +28°C° 0 mm 4 mps 711 mmHg 48%
    21:00 +27°C° 0 mm 3 mps 711 mmHg 52%
    22:00 +27°C° 0 mm 3 mps 711 mmHg 54%
    23:00 +26°C° 0 mm 2 mps 711 mmHg 57%

    28 October, Monday

    Time Temperature Precipitation Wind Pressure Humidity
    00:00 +26°C° 0 mm 2 mps 711 mmHg 59%
    01:00 +25°C° 0 mm 2 mps 711 mmHg 61%
    02:00 +25°C° 0 mm 1 mps 711 mmHg 63%
    03:00 +24°C° 0 mm 1 mps 710 mmHg 65%
    04:00 +24°C° 0 mm 1 mps 711 mmHg 66%
    05:00 +24°C° 0 mm 1 mps 711 mmHg 66%
    06:00 +24°C° 0 mm 1 mps 712 mmHg 67%
    07:00 +25°C° 0 mm 2 mps 712 mmHg 58%
    08:00 +27°C° 0 mm 3 mps 713 mmHg 49%
    09:00 +28°C° 0 mm 3 mps 714 mmHg 41%
    10:00 +30°C° 0 mm 4 mps 713 mmHg 37%
    11:00 +32°C° 0 mm 4 mps 713 mmHg 33%
    12:00 +33°C° 0 mm 5 mps 713 mmHg 29%
    13:00 +33°C° 0 mm 5 mps 712 mmHg 30%
    14:00 +33°C° 0 mm 6 mps 711 mmHg 31%
    15:00 +33°C° 0 mm 7 mps 711 mmHg 32%
    16:00 +32°C° 0 mm 6 mps 711 mmHg 36%
    17:00 +30°C° 0 mm 5 mps 711 mmHg 41%
    18:00 +29°C° 0 mm 5 mps 711 mmHg 45%
    19:00 +28°C° 0 mm 4 mps 711 mmHg 48%
    20:00 +28°C° 0 mm 4 mps 712 mmHg 51%
    21:00 +27°C° 0 mm 3 mps 712 mmHg 54%
    22:00 +27°C° 0 mm 3 mps 712 mmHg 56%
    23:00 +26°C° 0 mm 2 mps 711 mmHg 59%

    29 October, Tuesday

    Time Temperature Precipitation Wind Pressure Humidity
    00:00 +26°C° 0 mm 2 mps 711 mmHg 62%
    01:00 +25°C° 0 mm 2 mps 711 mmHg 63%
    02:00 +25°C° 0 mm 1 mps 711 mmHg 64%
    03:00 +24°C° 0 mm 1 mps 711 mmHg 65%
    04:00 +24°C° 0 mm 1 mps 711 mmHg 66%
    05:00 +24°C° 0 mm 1 mps 711 mmHg 67%
    06:00 +24°C° 0 mm 1 mps 712 mmHg 68%
    07:00 +25°C° 0 mm 2 mps 712 mmHg 62%
    08:00 +26°C° 0 mm 3 mps 713 mmHg 55%
    09:00 +28°C° 0 mm 4 mps 713 mmHg 49%
    10:00 +29°C° 0 mm 4 mps 713 mmHg 45%
    11:00 +30°C° 0 mm 4 mps 713 mmHg 40%
    12:00 +33°C° 0 mm 4 mps 712 mmHg 36%
    13:00 +33°C° 0 mm 5 mps 712 mmHg 37%
    14:00 +33°C° 0 mm 5 mps 711 mmHg 38%
    15:00 +33°C° 0 mm 6 mps 711 mmHg 38%
    16:00 +32°C° 0 mm 6 mps 711 mmHg 42%
    17:00 +30°C° 0 mm 5 mps 711 mmHg 45%
    18:00 +29°C° 0 mm 5 mps 711 mmHg 49%
    19:00 +28°C° 0 mm 5 mps 711 mmHg 52%
    20:00 +27°C° 0 mm 4 mps 712 mmHg 56%
    21:00 +27°C° 0 mm 4 mps 712 mmHg 60%
    22:00 +26°C° 0 mm 3 mps 712 mmHg 61%
    23:00 +26°C° 0 mm 2 mps 711 mmHg 62%
    Show more